Regional Weather Roundup
Issued by NWS Sioux Falls, SD

Home | Current Version | Previous Version | Graphics & Text | Print | Product List | Glossary On
Versions: 1 2 3 4 5 6 7 8 9 10 11 12 13 14 15 16 17 18 19 20 21 22 23 24 25 26 27 28 29 30 31 32 33 34 35 36 37 38 39 40 41 42 43 44 45 46 47 48 49 50
000
ASUS43 KFSD 210602
RWRFSD

WEATHER ROUNDUP FOR SE SOUTH DAKOTA/SW MINNESOTA/NW IOWA
NATIONAL WEATHER SERVICE SIOUX FALLS SD
100 AM CDT SAT APR 21 2018

NOTE: "FAIR" INDICATES FEW OR NO CLOUDS BELOW 12,000 FEET WITH NO
SIGNIFICANT WEATHER AND OR OBSTRUCTIONS TO VISIBILITY.


SDZ038>040-050-052>070-210700-
SOUTHEAST SOUTH DAKOTA

CITY           SKY/WX    TMP DP  RH WIND       PRES   REMARKS
BROOKINGS      CLOUDY    39  32  76 E6        30.35F
CHAMBERLAIN    CLOUDY    42  42 100 SE7       30.31F
6HR MIN TEMP:  42; 6HR MAX TEMP:  47; 6HR PCP:  0.01;

HURON          CLOUDY    39  36  89 SE6       30.35S
6HR MIN TEMP:  38; 6HR MAX TEMP:  47;

MADISON        CLOUDY    36  36 100 SE6       30.35S
MITCHELL       CLOUDY    42  38  85 S8        30.34F
6HR MIN TEMP:  40; 6HR MAX TEMP:  43; 6HR PCP: TRACE;

SIOUX FALLS    CLOUDY    41  32  70 E5        30.35S
6HR MIN TEMP:  40; 6HR MAX TEMP:  46;

WINNER         CLOUDY    40  35  83 SE9       30.30R
YANKTON        CLOUDY    42  37  82 E9        30.36S
$$

MNZ071-072-080-081-089-090-097-098-210700-
SOUTHWEST MINNESOTA

CITY           SKY/WX    TMP DP  RH WIND       PRES   REMARKS
FAIRMONT       MOCLDY    36  29  75 CALM      30.40F
JACKSON        CLOUDY    34  30  86 E6        30.39R WCI  29
LUVERNE        CLOUDY    36  32  87 CALM      30.36S
MARSHALL       CLOUDY    35  30  82 SE3       30.38F
6HR MIN TEMP:  35; 6HR MAX TEMP:  39;

MONTEVIDEO     CLOUDY    34  28  80 S3        30.39S
PIPESTONE      CLOUDY   N/A N/A N/A SE6       30.36R
REDWOOD FALLS  MOCLDY    36  28  73 E6        30.38F
TRACY          CLOUDY    39  30  70 S5        30.37F
WINDOM         CLOUDY    37  19  48 CALM      30.38S
WORTHINGTON    CLOUDY    34  31  88 SE5       30.38  WCI  30
$$

IAZ001>003-012>014-020>022-031-032-NEZ013-014-SDZ071-210700-
NORTHWEST IOWA

CITY           SKY/WX    TMP DP  RH WIND       PRES   REMARKS
CHEROKEE       CLOUDY    38  32  77 CALM      30.38R
DENISON        CLOUDY    45  37  76 E6        30.38R
ESTHERVILLE    CLOUDY    34  29  82 NE6       30.38S WCI  29
LE MARS        CLOUDY    41  34  75 CALM      30.38R
ORANGE CITY    DRIZZLE   39  36  87 SE3       30.37R
SHELDON        CLOUDY    39  34  81 E9        30.35S
SIOUX CITY     CLOUDY    44  33  65 E3        30.36R
6HR MIN TEMP:  44; 6HR MAX TEMP:  56;

SPENCER        CLOUDY    37  30  75 E5        30.38R
6HR MIN TEMP:  36; 6HR MAX TEMP:  38;

STORM LAKE     CLOUDY    37  32  81 E9        30.37R
$$

ABBREVIATIONS USED IN REMARKS
   TC - TEMPERATURE IN CELSIUS
  WCI - WIND CHILL INDEX
   HX - HEAT INDEX
  VSB - VISIBILITY





USA.gov is the U.S. government's official web portal to all federal, state and local government web resources and services.